Time,TemperatureF,DewpointF,PressureIn,WindDirection,WindDirectionDegrees,WindSpeedMPH,WindSpeedGustMPH,Humidity,HourlyPrecipIn,Conditions,Clouds,dailyrainin,SoftwareType,DateUTC
2013-01-09 00:10:00,70.7,41.0,29.88,North,0,0.0,0.0,34,0.00,,,-99.99,VWS V12.07,2013-01-09 05:10:00,
2013-01-09 00:20:00,70.7,41.0,29.88,North,0,0.0,0.0,34,0.00,,,-99.99,VWS V12.07,2013-01-09 05:20:00,
2013-01-09 00:30:00,70.7,41.0,29.88,North,0,0.0,0.0,34,0.00,,,-99.99,VWS V12.07,2013-01-09 05:30:00,
2013-01-09 00:40:00,70.7,41.0,29.88,North,0,0.0,0.0,34,0.00,,,-99.99,VWS V12.07,2013-01-09 05:40:00,
2013-01-09 00:50:00,70.5,41.6,29.88,North,0,0.0,0.0,35,0.00,,,-99.99,VWS V12.07,2013-01-09 05:50:00,
2013-01-09 01:00:00,70.5,41.6,29.88,North,0,0.0,0.0,35,0.00,,,-99.99,VWS V12.07,2013-01-09 06:00:00,
2013-01-09 01:10:00,70.5,41.6,29.88,North,0,0.0,0.0,35,0.00,,,-99.99,VWS V12.07,2013-01-09 06:10:00,
2013-01-09 01:20:00,70.5,41.6,29.88,North,0,0.0,0.0,35,0.00,,,-99.99,VWS V12.07,2013-01-09 06:20:00,
2013-01-09 01:30:00,70.3,42.2,29.88,North,0,0.0,0.0,36,0.00,,,-99.99,VWS V12.07,2013-01-09 06:30:00,
2013-01-09 01:40:00,70.3,42.2,29.88,North,0,0.0,0.0,36,0.00,,,-99.99,VWS V12.07,2013-01-09 06:40:00,
2013-01-09 01:50:00,70.3,42.2,29.88,North,0,0.0,0.0,36,0.00,,,-99.99,VWS V12.07,2013-01-09 06:50:00,
2013-01-09 02:00:00,70.3,42.9,29.88,North,0,0.0,0.0,37,0.00,,,-99.99,VWS V12.07,2013-01-09 07:00:00,
2013-01-09 02:10:00,70.2,42.7,29.88,North,0,0.0,0.0,37,0.00,,,-99.99,VWS V12.07,2013-01-09 07:10:00,
2013-01-09 02:20:00,70.0,42.5,29.88,North,0,0.0,0.0,37,0.00,,,-99.99,VWS V12.07,2013-01-09 07:20:00,
2013-01-09 02:30:00,69.6,42.9,29.88,North,0,0.0,0.0,38,0.00,,,-99.99,VWS V12.07,2013-01-09 07:30:00,
2013-01-09 02:40:00,69.4,42.8,29.88,North,0,0.0,0.0,38,0.00,,,-99.99,VWS V12.07,2013-01-09 07:40:00,
2013-01-09 02:50:00,69.4,43.4,29.88,North,0,0.0,0.0,39,0.00,,,-99.99,VWS V12.07,2013-01-09 07:50:00,
2013-01-09 03:00:00,69.3,43.3,29.88,North,0,0.0,0.0,39,0.00,,,-99.99,VWS V12.07,2013-01-09 08:00:00,
2013-01-09 03:10:00,69.4,44.1,29.88,North,0,0.0,0.0,40,0.00,,,-99.99,VWS V12.07,2013-01-09 08:10:00,
2013-01-09 03:20:00,69.6,44.9,29.88,North,0,0.0,0.0,41,0.00,,,-99.99,VWS V12.07,2013-01-09 08:20:00,